LVMSA SAAR-SADF

Flight info

Callsign LVMSA
Flight time 1h 3m
Altitude 5000
Route DCT VASAL W20 MULTA W24 SNT DCT
Aircraft BE36/L-S/C

Departure

Time 2026-05-05 21:16
Airport Rosario Islas Malvinas International Airport (SAAR)

Arrival

Time 2026-05-05 22:19
Airport San Fernando Airport (SADF)
Time Latitude Longitude Altitude Speed Heading
2026-05-05 21:06 -32.91807 -60.78223 81 ft 0 kts 21°
2026-05-05 21:10 -32.91787 -60.78227 81 ft 6 kts 314°
2026-05-05 21:10 -32.91741 -60.78264 81 ft 9 kts 288°
2026-05-05 21:11 -32.91756 -60.78356 82 ft 12 kts 257°
2026-05-05 21:11 -32.91778 -60.78462 82 ft 13 kts 257°
2026-05-05 21:11 -32.91799 -60.78570 83 ft 12 kts 256°
2026-05-05 21:11 -32.91754 -60.78637 84 ft 0 kts 314°
2026-05-05 21:14 -32.91751 -60.78641 84 ft 4 kts 313°
2026-05-05 21:15 -32.91694 -60.78709 85 ft 16 kts 326°
2026-05-05 21:15 -32.91566 -60.78743 86 ft 25 kts 11°
2026-05-05 21:15 -32.91193 -60.78658 88 ft 77 kts 11°
2026-05-05 21:15 -32.90600 -60.78527 145 ft 89 kts
2026-05-05 21:16 -32.89954 -60.78395 288 ft 99 kts 11°
2026-05-05 21:16 -32.89262 -60.78252 485 ft 102 kts 11°
2026-05-05 21:16 -32.88584 -60.78102 706 ft 96 kts 19°
2026-05-05 21:16 -32.88029 -60.77689 866 ft 95 kts 44°
2026-05-05 21:17 -32.87727 -60.77005 1022 ft 95 kts 80°
2026-05-05 21:17 -32.87804 -60.76244 1203 ft 94 kts 105°
2026-05-05 21:17 -32.87968 -60.75493 1331 ft 96 kts 90°
2026-05-05 21:17 -32.88289 -60.74763 1430 ft 106 kts 129°
2026-05-05 21:18 -32.88835 -60.74168 1598 ft 105 kts 131°
2026-05-05 21:18 -32.89373 -60.73602 1759 ft 103 kts 131°
2026-05-05 21:18 -32.89952 -60.73084 1918 ft 104 kts 141°
2026-05-05 21:18 -32.90574 -60.72639 2083 ft 103 kts 142°
2026-05-05 21:19 -32.91180 -60.72201 2245 ft 101 kts 142°
2026-05-05 21:19 -32.91775 -60.71773 2407 ft 100 kts 142°
2026-05-05 21:19 -32.92374 -60.71338 2544 ft 103 kts 142°
2026-05-05 21:19 -32.93012 -60.70863 2632 ft 110 kts 142°
2026-05-05 21:20 -32.93671 -60.70357 2716 ft 116 kts 142°
2026-05-05 21:20 -32.94369 -60.69815 2800 ft 124 kts 142°
2026-05-05 21:20 -32.95109 -60.69229 2902 ft 130 kts 142°
2026-05-05 21:20 -32.95866 -60.68622 3032 ft 133 kts 142°
2026-05-05 21:21 -32.96645 -60.67992 3164 ft 135 kts 142°
2026-05-05 21:21 -32.97421 -60.67366 3298 ft 137 kts 142°
2026-05-05 21:21 -32.98272 -60.66824 3423 ft 140 kts 156°
2026-05-05 21:21 -32.99181 -60.66413 3555 ft 141 kts 156°
2026-05-05 21:22 -33.00101 -60.65997 3685 ft 141 kts 156°
2026-05-05 21:22 -33.01026 -60.65578 3815 ft 142 kts 156°
2026-05-05 21:22 -33.01957 -60.65159 3952 ft 143 kts 156°
2026-05-05 21:22 -33.02887 -60.64738 4072 ft 143 kts 156°
2026-05-05 21:23 -33.03823 -60.64312 4186 ft 143 kts 156°
2026-05-05 21:23 -33.04760 -60.63884 4312 ft 143 kts 156°
2026-05-05 21:23 -33.05690 -60.63456 4446 ft 142 kts 156°
2026-05-05 21:23 -33.06600 -60.63034 4609 ft 139 kts 156°
2026-05-05 21:24 -33.07507 -60.62611 4778 ft 137 kts 156°
2026-05-05 21:24 -33.08416 -60.62182 4811 ft 147 kts 156°
2026-05-05 21:24 -33.09401 -60.61711 4804 ft 156 kts 156°
2026-05-05 21:24 -33.10434 -60.61216 4797 ft 161 kts 156°
2026-05-05 21:25 -33.11488 -60.60713 4791 ft 164 kts 156°
2026-05-05 21:25 -33.12548 -60.60204 4787 ft 165 kts 156°
2026-05-05 21:25 -33.13618 -60.59661 4783 ft 165 kts 153°
2026-05-05 21:25 -33.14671 -60.59085 4782 ft 166 kts 153°
2026-05-05 21:26 -33.15712 -60.58517 4782 ft 166 kts 153°
2026-05-05 21:26 -33.16771 -60.57938 4783 ft 166 kts 153°
2026-05-05 21:26 -33.17831 -60.57365 4785 ft 166 kts 154°
2026-05-05 21:26 -33.18877 -60.56794 4787 ft 167 kts 153°
2026-05-05 21:27 -33.19936 -60.56211 4787 ft 167 kts 153°
2026-05-05 21:27 -33.20988 -60.55630 4786 ft 167 kts 153°
2026-05-05 21:27 -33.22053 -60.55041 4787 ft 167 kts 154°
2026-05-05 21:27 -33.23101 -60.54462 4788 ft 167 kts 153°
2026-05-05 21:28 -33.24162 -60.53876 4789 ft 167 kts 154°
2026-05-05 21:28 -33.25232 -60.53283 4789 ft 167 kts 153°
2026-05-05 21:28 -33.26280 -60.52706 4791 ft 167 kts 153°
2026-05-05 21:28 -33.27343 -60.52117 4791 ft 167 kts 153°
2026-05-05 21:29 -33.28400 -60.51533 4790 ft 167 kts 154°
2026-05-05 21:29 -33.29456 -60.50949 4792 ft 167 kts 154°
2026-05-05 21:29 -33.30505 -60.50367 4791 ft 167 kts 153°
2026-05-05 21:29 -33.31563 -60.49783 4791 ft 167 kts 154°
2026-05-05 21:30 -33.32623 -60.49200 4794 ft 167 kts 154°
2026-05-05 21:30 -33.33687 -60.48610 4795 ft 167 kts 153°
2026-05-05 21:30 -33.34692 -60.47942 4795 ft 167 kts 148°
2026-05-05 21:30 -33.35699 -60.47239 4794 ft 167 kts 147°
2026-05-05 21:31 -33.36713 -60.46531 4793 ft 167 kts 148°
2026-05-05 21:31 -33.37704 -60.45832 4795 ft 167 kts 147°
2026-05-05 21:31 -33.38709 -60.45125 4797 ft 167 kts 147°
2026-05-05 21:31 -33.39708 -60.44424 4798 ft 167 kts 147°
2026-05-05 21:32 -33.40717 -60.43716 4801 ft 167 kts 148°
2026-05-05 21:32 -33.41715 -60.43013 4802 ft 167 kts 147°
2026-05-05 21:32 -33.42721 -60.42306 4803 ft 167 kts 148°
2026-05-05 21:32 -33.43724 -60.41598 4801 ft 167 kts 147°
2026-05-05 21:33 -33.44722 -60.40895 4800 ft 167 kts 148°
2026-05-05 21:33 -33.45732 -60.40187 4800 ft 167 kts 148°
2026-05-05 21:33 -33.46737 -60.39480 4800 ft 167 kts 148°
2026-05-05 21:33 -33.47734 -60.38776 4802 ft 167 kts 147°
2026-05-05 21:34 -33.48745 -60.38061 4801 ft 167 kts 148°
2026-05-05 21:34 -33.49744 -60.37352 4801 ft 167 kts 148°
2026-05-05 21:34 -33.50744 -60.36640 4805 ft 167 kts 148°
2026-05-05 21:34 -33.51743 -60.35928 4805 ft 167 kts 148°
2026-05-05 21:35 -33.52737 -60.35218 4806 ft 167 kts 148°
2026-05-05 21:35 -33.53741 -60.34502 4804 ft 167 kts 147°
2026-05-05 21:35 -33.54738 -60.33792 4803 ft 167 kts 147°
2026-05-05 21:35 -33.55743 -60.33082 4804 ft 167 kts 147°
2026-05-05 21:36 -33.56751 -60.32370 4801 ft 167 kts 147°
2026-05-05 21:36 -33.57751 -60.31667 4798 ft 167 kts 147°
2026-05-05 21:36 -33.58758 -60.30959 4799 ft 167 kts 147°
2026-05-05 21:36 -33.59761 -60.30254 4802 ft 167 kts 147°
2026-05-05 21:37 -33.60755 -60.29554 4804 ft 167 kts 147°
2026-05-05 21:37 -33.61755 -60.28848 4806 ft 166 kts 147°
2026-05-05 21:37 -33.62750 -60.28141 4805 ft 166 kts 147°
2026-05-05 21:37 -33.63760 -60.27422 4808 ft 166 kts 147°
2026-05-05 21:38 -33.64745 -60.26720 4807 ft 166 kts 147°
2026-05-05 21:38 -33.65741 -60.26002 4802 ft 167 kts 147°
2026-05-05 21:38 -33.66743 -60.25282 4801 ft 167 kts 147°
2026-05-05 21:38 -33.67747 -60.24562 4800 ft 167 kts 147°
2026-05-05 21:39 -33.68748 -60.23846 4804 ft 167 kts 147°
2026-05-05 21:39 -33.69751 -60.23128 4799 ft 167 kts 147°
2026-05-05 21:39 -33.70750 -60.22414 4805 ft 167 kts 147°
2026-05-05 21:39 -33.71739 -60.21700 4803 ft 167 kts 147°
2026-05-05 21:40 -33.72746 -60.20981 4803 ft 168 kts 148°
2026-05-05 21:40 -33.73746 -60.20266 4799 ft 167 kts 148°
2026-05-05 21:40 -33.74751 -60.19546 4804 ft 167 kts 147°
2026-05-05 21:40 -33.75743 -60.18836 4805 ft 166 kts 147°
2026-05-05 21:41 -33.76739 -60.18119 4807 ft 166 kts 147°
2026-05-05 21:41 -33.77729 -60.17404 4806 ft 166 kts 148°
2026-05-05 21:41 -33.78715 -60.16691 4809 ft 166 kts 147°
2026-05-05 21:41 -33.79712 -60.15966 4804 ft 166 kts 147°
2026-05-05 21:42 -33.80696 -60.15255 4803 ft 166 kts 147°
2026-05-05 21:42 -33.81695 -60.14530 4800 ft 167 kts 147°
2026-05-05 21:42 -33.82690 -60.13807 4799 ft 167 kts 147°
2026-05-05 21:42 -33.83682 -60.13084 4796 ft 167 kts 147°
2026-05-05 21:43 -33.84534 -60.12172 4811 ft 164 kts 124°
2026-05-05 21:43 -33.85183 -60.11044 4800 ft 164 kts 121°
2026-05-05 21:43 -33.85828 -60.09898 4799 ft 165 kts 121°
2026-05-05 21:43 -33.86465 -60.08754 4802 ft 165 kts 121°
2026-05-05 21:44 -33.87107 -60.07603 4798 ft 165 kts 121°
2026-05-05 21:44 -33.87741 -60.06462 4802 ft 165 kts 120°
2026-05-05 21:44 -33.88382 -60.05312 4799 ft 165 kts 121°
2026-05-05 21:44 -33.89018 -60.04173 4796 ft 165 kts 121°
2026-05-05 21:45 -33.89663 -60.03024 4799 ft 164 kts 121°
2026-05-05 21:45 -33.90303 -60.01886 4799 ft 165 kts 121°
2026-05-05 21:45 -33.90949 -60.00739 4800 ft 165 kts 121°
2026-05-05 21:45 -33.91588 -59.99596 4800 ft 165 kts 121°
2026-05-05 21:46 -33.92229 -59.98448 4800 ft 165 kts 121°
2026-05-05 21:46 -33.92872 -59.97300 4806 ft 165 kts 121°
2026-05-05 21:46 -33.93515 -59.96146 4806 ft 165 kts 121°
2026-05-05 21:46 -33.94154 -59.94991 4803 ft 165 kts 121°
2026-05-05 21:47 -33.94788 -59.93846 4802 ft 165 kts 121°
2026-05-05 21:47 -33.95428 -59.92690 4801 ft 165 kts 120°
2026-05-05 21:47 -33.96060 -59.91544 4799 ft 165 kts 121°
2026-05-05 21:47 -33.96698 -59.90389 4806 ft 165 kts 121°
2026-05-05 21:48 -33.97332 -59.89243 4811 ft 164 kts 121°
2026-05-05 21:48 -33.97971 -59.88089 4815 ft 164 kts 121°
2026-05-05 21:48 -33.98603 -59.86953 4817 ft 164 kts 121°
2026-05-05 21:48 -33.99240 -59.85811 4818 ft 164 kts 121°
2026-05-05 21:49 -33.99880 -59.84656 4818 ft 164 kts 121°
2026-05-05 21:49 -34.00512 -59.83512 4819 ft 164 kts 121°
2026-05-05 21:49 -34.01149 -59.82364 4821 ft 164 kts 121°
2026-05-05 21:49 -34.01782 -59.81219 4820 ft 164 kts 121°
2026-05-05 21:50 -34.02416 -59.80071 4821 ft 164 kts 121°
2026-05-05 21:50 -34.03045 -59.78929 4821 ft 164 kts 121°
2026-05-05 21:50 -34.03675 -59.77781 4821 ft 164 kts 121°
2026-05-05 21:50 -34.04304 -59.76631 4821 ft 164 kts 121°
2026-05-05 21:51 -34.04936 -59.75480 4823 ft 164 kts 121°
2026-05-05 21:51 -34.05571 -59.74325 4822 ft 164 kts 121°
2026-05-05 21:51 -34.06200 -59.73185 4822 ft 165 kts 121°
2026-05-05 21:51 -34.06834 -59.72031 4820 ft 165 kts 121°
2026-05-05 21:52 -34.08103 -59.69721 4822 ft 164 kts 121°
2026-05-05 21:52 -34.08731 -59.68583 4823 ft 164 kts 121°
2026-05-05 21:52 -34.09372 -59.67419 4824 ft 164 kts 121°
2026-05-05 21:53 -34.09999 -59.66278 4824 ft 165 kts 121°
2026-05-05 21:53 -34.10632 -59.65125 4820 ft 165 kts 121°
2026-05-05 21:53 -34.11266 -59.63962 4818 ft 164 kts 121°
2026-05-05 21:53 -34.11890 -59.62819 4820 ft 164 kts 121°
2026-05-05 21:54 -34.12518 -59.61666 4819 ft 163 kts 121°
2026-05-05 21:54 -34.13141 -59.60524 4818 ft 163 kts 121°
2026-05-05 21:54 -34.13763 -59.59379 4824 ft 164 kts 121°
2026-05-05 21:54 -34.14391 -59.58225 4815 ft 164 kts 121°
2026-05-05 21:55 -34.15018 -59.57071 4825 ft 163 kts 121°
2026-05-05 21:55 -34.15641 -59.55930 4822 ft 163 kts 121°
2026-05-05 21:55 -34.16261 -59.54797 4818 ft 163 kts 121°
2026-05-05 21:55 -34.16885 -59.53647 4823 ft 163 kts 120°
2026-05-05 21:56 -34.17514 -59.52495 4822 ft 164 kts 121°
2026-05-05 21:56 -34.18140 -59.51351 4821 ft 163 kts 121°
2026-05-05 21:56 -34.18755 -59.50208 4835 ft 163 kts 121°
2026-05-05 21:56 -34.19369 -59.49066 4829 ft 163 kts 121°
2026-05-05 21:57 -34.19994 -59.47911 4832 ft 162 kts 121°
2026-05-05 21:57 -34.20609 -59.46767 4832 ft 162 kts 121°
2026-05-05 21:57 -34.21223 -59.45625 4831 ft 163 kts 121°
2026-05-05 21:57 -34.21840 -59.44481 4832 ft 163 kts 121°
2026-05-05 21:58 -34.22459 -59.43333 4832 ft 163 kts 121°
2026-05-05 21:58 -34.23082 -59.42184 4829 ft 163 kts 121°
2026-05-05 21:58 -34.23699 -59.41046 4829 ft 163 kts 121°
2026-05-05 21:58 -34.24323 -59.39894 4830 ft 163 kts 121°
2026-05-05 21:59 -34.24948 -59.38738 4833 ft 163 kts 121°
2026-05-05 21:59 -34.25570 -59.37585 4834 ft 163 kts 121°
2026-05-05 21:59 -34.26190 -59.36429 4832 ft 164 kts 121°
2026-05-05 21:59 -34.26805 -59.35287 4833 ft 164 kts 121°
2026-05-05 22:00 -34.27431 -59.34124 4833 ft 164 kts 120°
2026-05-05 22:00 -34.28048 -59.32973 4836 ft 163 kts 120°
2026-05-05 22:00 -34.28663 -59.31821 4832 ft 163 kts 120°
2026-05-05 22:00 -34.29290 -59.30657 4833 ft 163 kts 120°
2026-05-05 22:01 -34.29906 -59.29511 4831 ft 163 kts 120°
2026-05-05 22:01 -34.30532 -59.28357 4833 ft 163 kts 120°
2026-05-05 22:01 -34.31156 -59.27203 4834 ft 163 kts 120°
2026-05-05 22:01 -34.31775 -59.26052 4834 ft 163 kts 120°
2026-05-05 22:02 -34.32393 -59.24903 4836 ft 163 kts 120°
2026-05-05 22:02 -34.33011 -59.23748 4836 ft 163 kts 120°
2026-05-05 22:02 -34.33621 -59.22602 4835 ft 163 kts 120°
2026-05-05 22:02 -34.34238 -59.21447 4836 ft 163 kts 120°
2026-05-05 22:03 -34.34850 -59.20299 4840 ft 163 kts 120°
2026-05-05 22:03 -34.35461 -59.19147 4837 ft 163 kts 120°
2026-05-05 22:03 -34.36079 -59.17984 4835 ft 163 kts 120°
2026-05-05 22:03 -34.36688 -59.16833 4837 ft 163 kts 120°
2026-05-05 22:04 -34.37296 -59.15684 4835 ft 162 kts 120°
2026-05-05 22:04 -34.37916 -59.14514 4720 ft 170 kts 120°
2026-05-05 22:04 -34.38560 -59.13288 4518 ft 177 kts 120°
2026-05-05 22:04 -34.39231 -59.12014 4304 ft 183 kts 120°
2026-05-05 22:05 -34.39915 -59.10711 4089 ft 186 kts 120°
2026-05-05 22:05 -34.40615 -59.09387 3868 ft 188 kts 120°
2026-05-05 22:05 -34.41322 -59.08048 3647 ft 188 kts 120°
2026-05-05 22:05 -34.42038 -59.06700 3425 ft 188 kts 120°
2026-05-05 22:06 -34.42741 -59.05379 3206 ft 188 kts 120°
2026-05-05 22:06 -34.43451 -59.04050 2972 ft 187 kts 120°
2026-05-05 22:06 -34.44162 -59.02729 2749 ft 186 kts 120°
2026-05-05 22:06 -34.44861 -59.01431 2637 ft 179 kts 120°
2026-05-05 22:07 -34.45513 -59.00233 2743 ft 165 kts 120°
2026-05-05 22:07 -34.46128 -58.99104 2902 ft 154 kts 120°
2026-05-05 22:07 -34.46717 -58.98024 2908 ft 153 kts 120°
2026-05-05 22:07 -34.47303 -58.96948 2908 ft 154 kts 120°
2026-05-05 22:08 -34.47898 -58.95852 2906 ft 155 kts 120°
2026-05-05 22:08 -34.48495 -58.94763 2898 ft 154 kts 120°
2026-05-05 22:08 -34.49084 -58.93679 2906 ft 154 kts 120°
2026-05-05 22:08 -34.49680 -58.92588 2909 ft 154 kts 120°
2026-05-05 22:09 -34.50271 -58.91505 2910 ft 155 kts 120°
2026-05-05 22:09 -34.50869 -58.90414 2908 ft 155 kts 120°
2026-05-05 22:09 -34.51467 -58.89325 2909 ft 155 kts 120°
2026-05-05 22:09 -34.52068 -58.88239 2908 ft 155 kts 120°
2026-05-05 22:10 -34.52663 -58.87154 2909 ft 155 kts 120°
2026-05-05 22:10 -34.53267 -58.86057 2909 ft 155 kts 120°
2026-05-05 22:10 -34.53866 -58.84960 2909 ft 155 kts 120°
2026-05-05 22:10 -34.54446 -58.83861 2898 ft 156 kts 120°
2026-05-05 22:11 -34.55024 -58.82746 2893 ft 156 kts 118°
2026-05-05 22:11 -34.55567 -58.81626 2889 ft 154 kts 116°
2026-05-05 22:11 -34.56006 -58.80442 2807 ft 155 kts 110°
2026-05-05 22:11 -34.56407 -58.79250 2826 ft 149 kts 108°
2026-05-05 22:12 -34.56607 -58.78032 2797 ft 147 kts 93°
2026-05-05 22:12 -34.56667 -58.76792 2701 ft 148 kts 88°
2026-05-05 22:12 -34.56644 -58.75527 2533 ft 150 kts 84°
2026-05-05 22:12 -34.56539 -58.74276 2416 ft 147 kts 82°
2026-05-05 22:13 -34.56436 -58.73086 2416 ft 135 kts 82°
2026-05-05 22:13 -34.56317 -58.71988 2378 ft 128 kts 79°
2026-05-05 22:13 -34.56123 -58.70941 2328 ft 123 kts 72°
2026-05-05 22:13 -34.55804 -58.70015 2358 ft 113 kts 63°
2026-05-05 22:14 -34.55349 -58.69263 2324 ft 111 kts 45°
2026-05-05 22:14 -34.54688 -58.68792 2287 ft 110 kts 24°
2026-05-05 22:14 -34.54012 -58.68487 2131 ft 95 kts 21°
2026-05-05 22:14 -34.53408 -58.68244 1974 ft 87 kts 23°
2026-05-05 22:15 -34.52931 -58.67872 1859 ft 79 kts 43°
2026-05-05 22:15 -34.52528 -58.67433 1738 ft 75 kts 42°
2026-05-05 22:15 -34.52142 -58.67000 1655 ft 77 kts 44°
2026-05-05 22:15 -34.51767 -58.66531 1594 ft 77 kts 47°
2026-05-05 22:16 -34.51391 -58.66065 1519 ft 78 kts 45°
2026-05-05 22:16 -34.50998 -58.65601 1445 ft 78 kts 44°
2026-05-05 22:16 -34.50599 -58.65145 1374 ft 79 kts 45°
2026-05-05 22:16 -34.50210 -58.64674 1269 ft 80 kts 46°
2026-05-05 22:17 -34.49819 -58.64209 1133 ft 78 kts 44°
2026-05-05 22:17 -34.49418 -58.63742 1006 ft 79 kts 44°
2026-05-05 22:17 -34.49021 -58.63276 887 ft 80 kts 45°
2026-05-05 22:17 -34.48620 -58.62793 774 ft 81 kts 44°
2026-05-05 22:18 -34.48211 -58.62320 662 ft 80 kts 44°
2026-05-05 22:18 -34.47805 -58.61850 561 ft 80 kts 44°
2026-05-05 22:18 -34.47420 -58.61394 464 ft 74 kts 47°
2026-05-05 22:18 -34.47039 -58.60957 347 ft 77 kts 46°
2026-05-05 22:19 -34.46654 -58.60505 256 ft 78 kts 44°
2026-05-05 22:19 -34.46262 -58.60038 142 ft 79 kts 47°
2026-05-05 22:19 -34.45879 -58.59582 22 ft 70 kts 46°
2026-05-05 22:19 -34.45592 -58.59245 9 ft 47 kts 44°
2026-05-05 22:20 -34.45371 -58.58986 9 ft 42 kts 43°
2026-05-05 22:20 -34.45170 -58.58752 9 ft 38 kts 45°
2026-05-05 22:20 -34.44982 -58.58534 9 ft 34 kts 45°
2026-05-05 22:20 -34.44852 -58.58340 9 ft 23 kts 101°
2026-05-05 22:21 -34.44958 -58.58230 9 ft 19 kts 148°
2026-05-05 22:21 -34.45067 -58.58152 9 ft 16 kts 151°
2026-05-05 22:21 -34.45166 -58.58083 9 ft 16 kts 149°
2026-05-05 22:21 -34.45257 -58.58019 9 ft 14 kts 147°
2026-05-05 22:22 -34.45338 -58.57996 9 ft 13 kts 240°
2026-05-05 22:22 -34.45387 -58.58109 9 ft 18 kts 243°
2026-05-05 22:22 -34.45457 -58.58271 9 ft 24 kts 243°
2026-05-05 22:22 -34.45543 -58.58469 9 ft 28 kts 242°
2026-05-05 22:23 -34.45641 -58.58696 9 ft 31 kts 243°
2026-05-05 22:23 -34.45740 -58.58930 9 ft 30 kts 243°
2026-05-05 22:23 -34.45835 -58.59148 9 ft 28 kts 244°
2026-05-05 22:23 -34.45896 -58.59282 9 ft 6 kts 169°
2026-05-05 22:24 -34.45918 -58.59245 9 ft 0 kts 65°